Voltar ao catálogo

KUIPER-00446

AtivoComunicaçõesLEO
NORAD 68944·PAYLOAD·🇺🇸 United States

Lançado Apr 30, 2026 de Guiana Space Centre

Loading…

Próximas Passagens (próximas 24 horas)

TLE

AtualizadoSource: CelesTrak SupGP

Época: Sep 14, 2026, 21:18 UTC

1 68944C 26098AB  26257.88783565  .00003297  00000+0  43173-3 0  2576
2 68944  51.9001  16.5200 0000686 238.0356  24.6871 14.79917701    15

Acompanhe KUIPER-00446 em tempo real com AllMySat

Download on the App Store